Regional Weather Roundup
Issued by NWS

Home | Current Version | Previous Version | Graphics & Text | Print | Product List | Glossary On
Versions: 1 2 3 4 5 6 7 8 9 10 11 12 13 14 15 16 17 18 19 20 21 22 23 24 25 26 27 28 29 30 31 32 33 34 35 36 37 38 39 40 41 42 43 44 45 46 47 48 49 50
000
ASUS43 KLMK 020502
RWRKY
KENTUCKY REGIONAL WEATHER ROUNDUP
NATIONAL WEATHER SERVICE LOUISVILLE KY
100 AM EDT THU JUL 02 2015

NOTE "FAIR" INDICATES FEW OR NO CLOUDS BELOW 12,000 FEET
WITH NO SIGNIFICANT WEATHER AND/OR OBSTRUCTIONS TO VISIBILITY.

KYZ001>023-026-027-061>063-070>075-020600-
WESTERN AND SOUTH CENTRAL KENTUCKY

CITY           SKY/WX    TMP DP  RH WIND       PRES   REMARKS
PADUCAH        HVY RAIN  75  70  84 VRB6      29.90S
HENDERSON      CLOUDY    73  68  83 CALM      29.89S
OWENSBORO      MOCLDY    73  70  91 SE5       29.92S
HOPKINSVILLE   MOCLDY    71  67  89 S8        29.92F
BOWLING GREEN  CLOUDY    71  66  84 S5        29.95F
GLASGOW        NOT AVBL
$$

KYZ024-025-028>034-038-045-046-053-020600-
NORTH CENTRAL KENTUCKY

CITY           SKY/WX    TMP DP  RH WIND       PRES   REMARKS
LOUISVILLE/SDF TSTM      73  70  90 W10       29.92F
LOUISVILLE/LOU LGT RAIN  72  70  93 S3        29.93F FOG
FORT KNOX      CLOUDY    71  68  90 SW3       29.93S
$$

KYZ035>037-039>044-047>052-055>060-089>105-020600-
NORTHEAST KENTUCKY

CITY           SKY/WX    TMP DP  RH WIND       PRES   REMARKS
LEXINGTON      CLOUDY    69  67  93 SW5       29.96S FOG
COVINGTON      CLOUDY    69  65  86 CALM      29.93F
FRANKFORT      CLOUDY    70  67  90 CALM      29.93F FOG
$$

KYZ054-064>069-076>088-106>120-020600-
SOUTHEAST KENTUCKY

CITY           SKY/WX    TMP DP  RH WIND       PRES   REMARKS
JACKSON        CLOUDY    69  66  90 CALM      29.98S
LONDON         MOCLDY    68  63  84 SW7       29.99F
SOMERSET       NOT AVBL
MIDDLESBORO    NOT AVBL
MONTICELLO     MOCLDY    66  66 100 CALM      30.01F
$$



USA.gov is the U.S. government's official web portal to all federal, state and local government web resources and services.